Regional Weather Roundup
Issued by NWS

Home | Current Version | Previous Version | Text Only | Print | Product List | Glossary On
Versions: 1 2 3 4 5 6 7 8 9 10 11 12 13 14 15 16 17 18 19 20 21 22 23 24 25 26 27 28 29 30 31 32 33 34 35 36 37 38 39 40 41 42 43 44 45 46 47 48 49 50
000
ASUS43 KBIS 131110
RWRND

NORTH DAKOTA REGIONAL WEATHER ROUNDUP
NATIONAL WEATHER SERVICE BISMARCK ND
500 AM CST SAT FEB 13 2016

NOTE: "FAIR" INDICATES FEW OR NO CLOUDS BELOW 12,000 FEET WITH NO
SIGNIFICANT WEATHER AND/OR OBSTRUCTIONS TO VISIBILITY.


NDZ001>003-009>011-017-131200-
NORTHWEST NORTH DAKOTA

CITY           SKY/WX    TMP DP  RH WIND       PRES   REMARKS
WILLISTON      CLOUDY    13   8  81 SE12      30.14F WCI  -1
MINOT          CLOUDY     8  -5  55 SE9       30.29F WCI  -5
MINOT AFB      CLOUDY     7  -2  67 SE14G20   30.29F WCI -10
$$

NDZ018>021-031>035-040>046-131200-
SOUTHWEST NORTH DAKOTA

CITY           SKY/WX    TMP DP  RH WIND       PRES   REMARKS
BISMARCK       CLOUDY     9   0  67 SE10      30.35F WCI  -5
DICKINSON      CLOUDY    11   7  84 SE23G32   30.10F WCI  -9
GARRISON         N/A      7   1  76 SE15      30.28F WCI -10
HETTINGER ARPT CLOUDY    13  10  88 SE14G23   30.16F WCI  -2
$$

NDZ004>008-012>016-024-026-027-054-131200-
NORTHEAST NORTH DAKOTA

CITY           SKY/WX    TMP DP  RH WIND       PRES   REMARKS
GRAND FORKS    CLOUDY    -8 -13  78 S6        30.59F WCI -21
GRND FRKS AFB  CLEAR    -10 -16  74 S3        30.58F
DEVILS LAKE    CLOUDY    -8 -12  83 SE9       30.46F WCI -25
$$

NDZ022-023-025-028>030-036>039-047>053-131200-
SOUTHEAST NORTH DAKOTA

CITY           SKY/WX    TMP DP  RH WIND       PRES   REMARKS
FARGO          CLOUDY    -7 -12  79 SE5       30.60F WCI -18
JAMESTOWN      CLOUDY    -3 -11  68 SE12      30.46F WCI -21
$$




USA.gov is the U.S. government's official web portal to all federal, state and local government web resources and services.